User: anonymous   Login
Location: Unspecified
(44.4377°N, 88.0525°W)
Time: 19:37:45
(UTC-05:00)
Language:

Okean 3 - Orbit

View from above orbital plane
View from above orbital plane
View from above satellite
View from above satellite

Ground track
Ground track

The orbit data is extracted from the following two-line orbital elements,

1 21397U 91039A   18175.46077963 +.00000246 +00000-0 +21200-4 0  9999
2 21397 082.5214 144.7444 0019546 073.5890 286.7476 14.92678722444258
Epoch (UTC): 24 June 2018 11:03:31
Eccentricity: 0.0019546
inclination: 82.5214°
perigee height: 576 km
apogee height: 603 km
right ascension of ascending node: 144.7444°
argument of perigee: 73.5890°
revolutions per day: 14.92678722
mean anomaly at epoch: 286.7476°
orbit number at epoch: 44425

The dashed part of the orbit path shows where the satellite is in the earth's shadow,  

DLR